Other Surface Observations
Issued by NWS Charleston, SC

Home | Current Version | Previous Version | Text Only | Print | Product List | Glossary On
Versions: 1 2 3 4 5 6 7 8 9 10 11 12 13 14 15 16 17 18 19 20 21 22 23 24 25 26 27 28 29 30 31 32 33 34 35 36 37 38 39 40 41 42 43 44 45 46 47 48 49 50
166
SXUS52 KCHS 232027
OSOCHS

MARINE OBSERVATIONS
NATIONAL WEATHER SERVICE CHARLESTON SC
400 PM EDT SUN APR 23 2017

...DOWNTOWN CHARLESTON AND HARBOR...

CITY           SKY/WX    TMP DP  RH WIND       PRES   REMARKS
WATERFRONT PRK   N/A     76  71  84 S13       29.79F

...LAKE MOULTRIE...

CITY           SKY/WX    TMP DP  RH WIND       PRES   REMARKS
PINOPOLIS        N/A     81  70  69 S9        29.72F

...LAKE AND SUPPLEMENTAL COASTAL OBSERVATIONS...

STATION/POSITION TIME  TEMP    WIND        PRES    WAVE   SWELL
                       AIR SEA DIR/SP/G            HT/PER HT/PER/DIR
                 (UTC) (F)     (DEG/KT/KT) (MB)    (FT/S) (FT/S/D)
FORT PULASKI     2000   79 75  170/ 10/ 14 1008.3
SAPELO ISLAND    2000   82     150/ 12     1008.0
WINYAH BAY       1930   71      80/ 13     1011.0S
LAKE MURRAY      2020   62      40/  6/  9 1008.8
ACE BASIN NERRS  1930   79     170/  3     1009.0F


...C-MAN AND BUOY OBSERVATIONS...

STATION/POSITION TIME  TEMP    WIND        PRES    WAVE   SWELL
                       AIR SEA DIR/SP/G            HT/PER HT/PER/DIR
                 (UTC) (F)     (DEG/KT/KT) (MB)    (FT/S) (FT/S/D)
BUOY 41004       2010   76 75  180/ 10/ 12 1010.0
BUOY 41008       1950   74 73  170/ 12/ 14 1008.6F   3/12   2/100/12
FOLLY BEACH CMAN 2000   75     140/ 12/ 13 1010.3F
CAPERS NS BUOY   2008   75 74  150/ 10/ 16 1009.5F
FRIPP NS BUOY    2008   74 75  180/ 12/ 16 1008.1F
5E ST. MARYS GA  2000      74                N/A     3/12   2/100/12


STATION/POSITION TIME  TEMP    WIND        PRES    WAVE   SWELL
                       AIR SEA DIR/SP/G            HT/PER HT/PER/DIR
                 (UTC) (F)     (DEG/KT/KT) (MB)    (FT/S) (FT/S/D)
FRYING PAN BUOY  2010   75 75   70/  6/  8 1011.0
BUOY 41025       1950   66 76   20/ 19/ 23 1013.5F   6/11   3/ 70/11
CAPE LOOKOUT NC  2000   63      30/ 21/ 23 1013.6F
BUOY 41002       1950   73 75  160/ 10/ 14 1013.7F   4/11   3/ 40/11
BUOY 41010       2010   75 78  160/ 16/ 19 1009.9
ST AUGUSTINE FL  2000   74 77  140/ 16/ 17 1009.9F

$$




USA.gov is the U.S. government's official web portal to all federal, state and local government web resources and services.